Regional Weather Roundup
Issued by NWS Sioux Falls, SD

Home | Current Version | Previous Version | Graphics & Text | Print | Product List | Glossary Off
Versions: 1 2 3 4 5 6 7 8 9 10 11 12 13 14 15 16 17 18 19 20 21 22 23 24 25 26 27 28 29 30 31 32 33 34 35 36 37 38 39 40 41 42 43 44 45 46 47 48 49 50

645
ASUS43 KFSD 212202
RWRFSD

WEATHER ROUNDUP FOR SE SOUTH DAKOTA/SW MINNESOTA/NW IOWA
NATIONAL WEATHER SERVICE SIOUX FALLS SD
500 PM CDT FRI JUL 21 2017

NOTE: "FAIR" INDICATES FEW OR NO CLOUDS BELOW 12,000 FEET WITH NO
SIGNIFICANT WEATHER AND OR OBSTRUCTIONS TO VISIBILITY.


SDZ038>040-050-052>070-212300-
SOUTHEAST SOUTH DAKOTA

CITY           SKY/WX    TMP DP  RH WIND       PRES   REMARKS
BROOKINGS      PTSUNNY   86  71  60 S14       29.82F
CHAMBERLAIN    FAIR      98  70  40 E8        29.76F HX 104
HURON          FAIR      88  71  57 SE13      29.76F
MADISON        FAIR      82  75  78 SE9       29.83F
MITCHELL       FAIR      89  74  60 SE13      29.78F HX  98
SIOUX FALLS    CLOUDY    83  74  74 E12       29.82F
WINNER         FAIR      99  66  33 NE3       29.78F HX 103
YANKTON        FAIR      89  76  65 E14       29.77F HX 100
$$

MNZ071-072-080-081-089-090-097-098-212300-
SOUTHWEST MINNESOTA

CITY           SKY/WX    TMP DP  RH WIND       PRES   REMARKS
FAIRMONT       FAIR      77  69  76 SE10      29.86F
JACKSON        FAIR      79  68  69 CALM      29.87F
MARSHALL       FAIR      85  73  67 S14       29.81F
MONTEVIDEO     PTSUNNY   88  73  62 S13G21    29.80S HX  96
PIPESTONE      FAIR      82  72  69 S10G16    29.84F
REDWOOD FALLS  FAIR      83  71  67 S20       29.82F
WINDOM         FAIR      81  70  69 SE12      29.85F
WORTHINGTON    PTSUNNY   81  73  76 SE10      29.86F
$$

IAZ001>003-012>014-020>022-031-032-NEZ013-014-SDZ071-212300-
NORTHWEST IOWA

CITY           SKY/WX    TMP DP  RH WIND       PRES   REMARKS
CHEROKEE       FAIR      83  77  80 E9        29.81F
DENISON        FAIR      90  81  74 SE12      29.79F HX 108
ESTHERVILLE    FAIR      78  71  79 E10       29.85F
ORANGE CITY    FAIR      84  75  74 E6        29.81F
SHELDON        PTSUNNY   82  75  78 E12       29.82S
SIOUX CITY     FAIR      89  79  72 E12       29.76F HX 104
SPENCER        CLOUDY    81  73  76 E9        29.84F
STORM LAKE     FAIR      77  75  94 E10       29.82F FOG
$$

ABBREVIATIONS USED IN REMARKS
   TC - TEMPERATURE IN CELSIUS
  WCI - WIND CHILL INDEX
   HX - HEAT INDEX
  VSB - VISIBILITY





USA.gov is the U.S. government's official web portal to all federal, state and local government web resources and services.